owner,sensor,date,latitude,longitude,vertical_datum,wind_speed,wind_to_direction,wind_speed_of_gust,qcFlag 
TCOON,ioos:station:TCOON:146:1,2019-09-01T00:30:00Z,28.1324,-97.0345,0.0,3.5,104.0,4.3,'11111222,11111222,11111222' 
TCOON,ioos:station:TCOON:146:1,2019-09-01T01:30:00Z,28.1324,-97.0345,0.0,3.2,102.0,3.8,'11111222,11111222,11111222' 
TCOON,ioos:station:TCOON:146:1,2019-09-01T02:30:00Z,28.1324,-97.0345,0.0,2.7,87.0,3.3,'11111222,11111222,11111222' 
TCOON,ioos:station:TCOON:146:1,2019-09-01T03:30:00Z,28.1324,-97.0345,0.0,2.8,101.0,3.4,'11111222,11111222,11111222' 
TCOON,ioos:station:TCOON:146:1,2019-09-01T04:30:00Z,28.1324,-97.0345,0.0,3.1,100.0,3.7,'11111222,11111222,11111222' 
TCOON,ioos:station:TCOON:146:1,2019-09-01T05:30:00Z,28.1324,-97.0345,0.0,3.2,107.0,4.1,'11111222,11111222,11111222' 
TCOON,ioos:station:TCOON:146:1,2019-09-01T06:30:00Z,28.1324,-97.0345,0.0,3.1,100.0,3.9,'11111222,11111222,11111222' 
TCOON,ioos:station:TCOON:146:1,2019-09-01T07:30:00Z,28.1324,-97.0345,0.0,2.8,115.0,3.5,'11111222,11111222,11111222' 
TCOON,ioos:station:TCOON:146:1,2019-09-01T08:30:00Z,28.1324,-97.0345,0.0,1.6,126.0,2.3,'11111222,11111222,11111222' 
TCOON,ioos:station:TCOON:146:1,2019-09-01T09:30:00Z,28.1324,-97.0345,0.0,1.6,127.0,2.1,'11111222,11111222,11111222' 
TCOON,ioos:station:TCOON:146:1,2019-09-01T10:30:00Z,28.1324,-97.0345,0.0,0.6,168.0,1.0,'11111222,11111222,11111222' 
TCOON,ioos:station:TCOON:146:1,2019-09-01T11:30:00Z,28.1324,-97.0345,0.0,2.2,340.0,2.6,'11111222,11111222,11111222' 
TCOON,ioos:station:TCOON:146:1,2019-09-01T12:30:00Z,28.1324,-97.0345,0.0,1.8,340.0,2.3,'11111222,11111222,11111222' 
TCOON,ioos:station:TCOON:146:1,2019-09-01T13:30:00Z,28.1324,-97.0345,0.0,2.8,340.0,3.4,'11111222,11111222,11111222' 
TCOON,ioos:station:TCOON:146:1,2019-09-01T14:30:00Z,28.1324,-97.0345,0.0,2.7,343.0,3.1,'11111222,11111222,11111222' 
TCOON,ioos:station:TCOON:146:1,2019-09-01T15:30:00Z,28.1324,-97.0345,0.0,2.0,338.0,2.7,'11111222,11111222,11111222' 
TCOON,ioos:station:TCOON:146:1,2019-09-01T16:30:00Z,28.1324,-97.0345,0.0,2.1,54.0,2.9,'11111222,11111222,11111222' 
TCOON,ioos:station:TCOON:146:1,2019-09-01T17:30:00Z,28.1324,-97.0345,0.0,2.3,106.0,2.8,'11111222,11111222,11111222' 
TCOON,ioos:station:TCOON:146:1,2019-09-01T18:30:00Z,28.1324,-97.0345,0.0,3.0,108.0,4.0,'11111222,11111222,11111222' 
TCOON,ioos:station:TCOON:146:1,2019-09-01T19:30:00Z,28.1324,-97.0345,0.0,3.9,95.0,4.6,'11111222,11111222,11111222' 
TCOON,ioos:station:TCOON:146:1,2019-09-01T20:30:00Z,28.1324,-97.0345,0.0,3.5,93.0,4.1,'11111222,11111222,11111222' 
TCOON,ioos:station:TCOON:146:1,2019-09-01T21:30:00Z,28.1324,-97.0345,0.0,2.9,100.0,3.4,'11111222,11111222,11111222' 
TCOON,ioos:station:TCOON:146:1,2019-09-01T22:30:00Z,28.1324,-97.0345,0.0,3.2,100.0,3.9,'11111222,11111222,11111222' 
TCOON,ioos:station:TCOON:146:1,2019-09-01T23:30:00Z,28.1324,-97.0345,0.0,4.1,94.0,4.9,'11111222,11111222,11111222' 
TCOON,ioos:station:TCOON:146:1,2019-09-02T00:30:00Z,28.1324,-97.0345,0.0,4.1,87.0,5.1,'11111222,11111222,11111222' 
TCOON,ioos:station:TCOON:146:1,2019-09-02T01:30:00Z,28.1324,-97.0345,0.0,4.3,89.0,5.1,'11111222,11111222,11111222' 
TCOON,ioos:station:TCOON:146:1,2019-09-02T02:30:00Z,28.1324,-97.0345,0.0,4.1,85.0,4.9,'11111222,11111222,11111222' 
TCOON,ioos:station:TCOON:146:1,2019-09-02T03:30:00Z,28.1324,-97.0345,0.0,4.2,79.0,5.1,'11111222,11111222,11111222' 
TCOON,ioos:station:TCOON:146:1,2019-09-02T04:30:00Z,28.1324,-97.0345,0.0,4.6,82.0,5.5,'11111222,11111222,11111222' 
TCOON,ioos:station:TCOON:146:1,2019-09-02T05:30:00Z,28.1324,-97.0345,0.0,3.6,86.0,4.3,'11111222,11111222,11111222' 
TCOON,ioos:station:TCOON:146:1,2019-09-02T06:30:00Z,28.1324,-97.0345,0.0,3.0,91.0,3.6,'11111222,11111222,11111222' 
TCOON,ioos:station:TCOON:146:1,2019-09-02T07:30:00Z,28.1324,-97.0345,0.0,2.1,72.0,2.8,'11111222,11111222,11111222' 
TCOON,ioos:station:TCOON:146:1,2019-09-02T08:30:00Z,28.1324,-97.0345,0.0,1.3,40.0,1.5,'11111222,11111222,11111222' 
TCOON,ioos:station:TCOON:146:1,2019-09-02T09:30:00Z,28.1324,-97.0345,0.0,1.4,15.0,1.7,'11111222,11111222,11111222' 
TCOON,ioos:station:TCOON:146:1,2019-09-02T10:30:00Z,28.1324,-97.0345,0.0,2.1,336.0,2.6,'11111222,11111222,11111222' 
TCOON,ioos:station:TCOON:146:1,2019-09-02T11:30:00Z,28.1324,-97.0345,0.0,3.6,336.0,4.3,'11111222,11111222,11111222' 
TCOON,ioos:station:TCOON:146:1,2019-09-02T12:30:00Z,28.1324,-97.0345,0.0,3.9,341.0,4.6,'11111222,11111222,11111222' 
TCOON,ioos:station:TCOON:146:1,2019-09-02T15:30:00Z,28.1324,-97.0345,0.0,3.2,350.0,4.2,'11111222,11111222,11111222' 
TCOON,ioos:station:TCOON:146:1,2019-09-02T16:30:00Z,28.1324,-97.0345,0.0,3.6,15.0,4.9,'11111222,11111222,11111222' 
TCOON,ioos:station:TCOON:146:1,2019-09-02T17:30:00Z,28.1324,-97.0345,0.0,3.5,25.0,4.7,'11111222,11111222,11111222' 
TCOON,ioos:station:TCOON:146:1,2019-09-02T18:30:00Z,28.1324,-97.0345,0.0,3.2,49.0,4.7,'11111222,11111222,11111222' 
TCOON,ioos:station:TCOON:146:1,2019-09-02T19:30:00Z,28.1324,-97.0345,0.0,4.1,73.0,4.8,'11111222,11111222,11111222' 
TCOON,ioos:station:TCOON:146:1,2019-09-02T20:30:00Z,28.1324,-97.0345,0.0,4.0,83.0,4.7,'11111222,11111222,11111222' 
TCOON,ioos:station:TCOON:146:1,2019-09-02T21:30:00Z,28.1324,-97.0345,0.0,5.3,54.0,7.1,'11111222,11111222,11111222' 
TCOON,ioos:station:TCOON:146:1,2019-09-02T22:30:00Z,28.1324,-97.0345,0.0,4.7,67.0,5.6,'11111222,11111222,11111222' 
TCOON,ioos:station:TCOON:146:1,2019-09-02T23:30:00Z,28.1324,-97.0345,0.0,4.7,64.0,6.1,'11111222,11111222,11111222' 
TCOON,ioos:station:TCOON:146:1,2019-09-03T00:30:00Z,28.1324,-97.0345,0.0,4.6,78.0,5.7,'11111222,11111222,11111222' 
TCOON,ioos:station:TCOON:146:1,2019-09-03T01:30:00Z,28.1324,-97.0345,0.0,4.6,78.0,5.6,'11111222,11111222,11111222' 
TCOON,ioos:station:TCOON:146:1,2019-09-03T02:30:00Z,28.1324,-97.0345,0.0,3.6,74.0,4.4,'11111222,11111222,11111222' 
TCOON,ioos:station:TCOON:146:1,2019-09-03T03:30:00Z,28.1324,-97.0345,0.0,3.1,67.0,3.6,'11111222,11111222,11111222' 
TCOON,ioos:station:TCOON:146:1,2019-09-03T04:30:00Z,28.1324,-97.0345,0.0,2.5,53.0,3.1,'11111222,11111222,11111222' 
TCOON,ioos:station:TCOON:146:1,2019-09-03T05:30:00Z,28.1324,-97.0345,0.0,3.6,76.0,4.4,'11111222,11111222,11111222' 
TCOON,ioos:station:TCOON:146:1,2019-09-03T06:30:00Z,28.1324,-97.0345,0.0,1.9,44.0,2.4,'11111222,11111222,11111222' 
TCOON,ioos:station:TCOON:146:1,2019-09-03T07:30:00Z,28.1324,-97.0345,0.0,1.3,23.0,1.5,'11111222,11111222,11111222' 
TCOON,ioos:station:TCOON:146:1,2019-09-03T08:30:00Z,28.1324,-97.0345,0.0,1.3,12.0,1.5,'11111222,11111222,11111222' 
TCOON,ioos:station:TCOON:146:1,2019-09-03T09:30:00Z,28.1324,-97.0345,0.0,1.7,327.0,2.0,'11111222,11111222,11111222' 
TCOON,ioos:station:TCOON:146:1,2019-09-03T10:30:00Z,28.1324,-97.0345,0.0,2.8,323.0,3.2,'11111222,11111222,11111222' 
TCOON,ioos:station:TCOON:146:1,2019-09-03T11:30:00Z,28.1324,-97.0345,0.0,3.6,335.0,4.4,'11111222,11111222,11111222' 
TCOON,ioos:station:TCOON:146:1,2019-09-03T12:30:00Z,28.1324,-97.0345,0.0,1.6,348.0,2.5,'11111222,11111222,11111222' 
TCOON,ioos:station:TCOON:146:1,2019-09-03T13:30:00Z,28.1324,-97.0345,0.0,3.7,351.0,4.4,'11111222,11111222,11111222' 
TCOON,ioos:station:TCOON:146:1,2019-09-03T14:30:00Z,28.1324,-97.0345,0.0,4.5,347.0,5.3,'11111222,11111222,11111222' 
TCOON,ioos:station:TCOON:146:1,2019-09-03T15:30:00Z,28.1324,-97.0345,0.0,3.4,342.0,4.3,'11111222,11111222,11111222' 
TCOON,ioos:station:TCOON:146:1,2019-09-03T16:30:00Z,28.1324,-97.0345,0.0,4.4,22.0,5.3,'11111222,11111222,11111222' 
TCOON,ioos:station:TCOON:146:1,2019-09-03T17:30:00Z,28.1324,-97.0345,0.0,3.9,2.0,5.0,'11111222,11111222,11111222' 
TCOON,ioos:station:TCOON:146:1,2019-09-03T18:30:00Z,28.1324,-97.0345,0.0,5.0,24.0,6.8,'11111222,11111222,11111222' 
TCOON,ioos:station:TCOON:146:1,2019-09-03T19:30:00Z,28.1324,-97.0345,0.0,4.7,49.0,6.1,'11111222,11111222,11111222' 
TCOON,ioos:station:TCOON:146:1,2019-09-03T20:30:00Z,28.1324,-97.0345,0.0,5.1,59.0,6.0,'11111222,11111222,11111222' 
TCOON,ioos:station:TCOON:146:1,2019-09-03T21:30:00Z,28.1324,-97.0345,0.0,4.9,57.0,6.3,'11111222,11111222,11111222' 
TCOON,ioos:station:TCOON:146:1,2019-09-03T22:30:00Z,28.1324,-97.0345,0.0,4.8,57.0,6.1,'11111222,11111222,11111222' 
TCOON,ioos:station:TCOON:146:1,2019-09-03T23:30:00Z,28.1324,-97.0345,0.0,5.3,60.0,6.3,'11111222,11111222,11111222' 
TCOON,ioos:station:TCOON:146:1,2019-09-04T00:30:00Z,28.1324,-97.0345,0.0,4.0,47.0,5.4,'11111222,11111222,11111222' 
TCOON,ioos:station:TCOON:146:1,2019-09-04T01:30:00Z,28.1324,-97.0345,0.0,2.8,42.0,3.6,'11111222,11111222,11111222' 
TCOON,ioos:station:TCOON:146:1,2019-09-04T02:30:00Z,28.1324,-97.0345,0.0,3.5,42.0,4.2,'11111222,11111222,11111222' 
TCOON,ioos:station:TCOON:146:1,2019-09-04T03:30:00Z,28.1324,-97.0345,0.0,3.8,46.0,5.2,'11111222,11111222,11111222' 
TCOON,ioos:station:TCOON:146:1,2019-09-04T04:30:00Z,28.1324,-97.0345,0.0,3.9,55.0,4.7,'11111222,11111222,11111222' 
TCOON,ioos:station:TCOON:146:1,2019-09-04T05:30:00Z,28.1324,-97.0345,0.0,3.4,43.0,4.5,'11111222,11111222,11111222' 
TCOON,ioos:station:TCOON:146:1,2019-09-04T06:30:00Z,28.1324,-97.0345,0.0,3.5,36.0,4.3,'11111222,11111222,11111222' 
TCOON,ioos:station:TCOON:146:1,2019-09-04T07:30:00Z,28.1324,-97.0345,0.0,2.9,29.0,3.5,'11111222,11111222,11111222' 
TCOON,ioos:station:TCOON:146:1,2019-09-04T08:30:00Z,28.1324,-97.0345,0.0,2.8,21.0,3.3,'11111222,11111222,11111222' 
TCOON,ioos:station:TCOON:146:1,2019-09-04T09:30:00Z,28.1324,-97.0345,0.0,3.1,25.0,3.8,'11111222,11111222,11111222' 
TCOON,ioos:station:TCOON:146:1,2019-09-04T10:30:00Z,28.1324,-97.0345,0.0,2.9,3.0,3.6,'11111222,11111222,11111222' 
TCOON,ioos:station:TCOON:146:1,2019-09-04T11:30:00Z,28.1324,-97.0345,0.0,4.1,8.0,4.8,'11111222,11111222,11111222' 
TCOON,ioos:station:TCOON:146:1,2019-09-04T12:30:00Z,28.1324,-97.0345,0.0,4.2,10.0,5.1,'11111222,11111222,11111222' 
TCOON,ioos:station:TCOON:146:1,2019-09-04T13:30:00Z,28.1324,-97.0345,0.0,4.2,23.0,6.1,'11111222,11111222,11111222' 
TCOON,ioos:station:TCOON:146:1,2019-09-04T14:30:00Z,28.1324,-97.0345,0.0,3.4,21.0,3.9,'11111222,11111222,11111222' 
TCOON,ioos:station:TCOON:146:1,2019-09-04T15:30:00Z,28.1324,-97.0345,0.0,4.0,15.0,4.8,'11111222,11111222,11111222' 
TCOON,ioos:station:TCOON:146:1,2019-09-04T16:30:00Z,28.1324,-97.0345,0.0,5.5,41.0,7.2,'11111222,11111222,11111222' 
TCOON,ioos:station:TCOON:146:1,2019-09-04T17:30:00Z,28.1324,-97.0345,0.0,6.0,50.0,7.7,'11111222,11111222,11111222' 
TCOON,ioos:station:TCOON:146:1,2019-09-04T18:30:00Z,28.1324,-97.0345,0.0,6.2,47.0,8.2,'11111222,11111222,11111222' 
TCOON,ioos:station:TCOON:146:1,2019-09-04T19:30:00Z,28.1324,-97.0345,0.0,6.9,49.0,8.0,'11111222,11111222,11111222' 
TCOON,ioos:station:TCOON:146:1,2019-09-04T20:30:00Z,28.1324,-97.0345,0.0,6.4,61.0,8.5,'11111222,11111222,11111222' 
TCOON,ioos:station:TCOON:146:1,2019-09-04T21:30:00Z,28.1324,-97.0345,0.0,6.2,62.0,7.7,'11111222,11111222,11111222' 
TCOON,ioos:station:TCOON:146:1,2019-09-04T22:30:00Z,28.1324,-97.0345,0.0,5.8,62.0,7.1,'11111222,11111222,11111222' 
TCOON,ioos:station:TCOON:146:1,2019-09-04T23:30:00Z,28.1324,-97.0345,0.0,5.1,54.0,6.4,'11111222,11111222,11111222' 
TCOON,ioos:station:TCOON:146:1,2019-09-05T00:30:00Z,28.1324,-97.0345,0.0,5.0,47.0,6.2,'11111222,11111222,11111222' 
TCOON,ioos:station:TCOON:146:1,2019-09-05T01:30:00Z,28.1324,-97.0345,0.0,4.8,44.0,6.0,'11111222,11111222,11111222' 
TCOON,ioos:station:TCOON:146:1,2019-09-05T02:30:00Z,28.1324,-97.0345,0.0,4.6,54.0,5.7,'11111222,11111222,11111222' 
TCOON,ioos:station:TCOON:146:1,2019-09-05T03:30:00Z,28.1324,-97.0345,0.0,4.7,63.0,5.7,'11111222,11111222,11111222' 
TCOON,ioos:station:TCOON:146:1,2019-09-05T04:30:00Z,28.1324,-97.0345,0.0,4.4,61.0,5.4,'11111222,11111222,11111222' 
TCOON,ioos:station:TCOON:146:1,2019-09-05T05:30:00Z,28.1324,-97.0345,0.0,4.0,66.0,5.0,'11111222,11111222,11111222' 
TCOON,ioos:station:TCOON:146:1,2019-09-05T06:30:00Z,28.1324,-97.0345,0.0,3.6,71.0,4.2,'11111222,11111222,11111222' 
TCOON,ioos:station:TCOON:146:1,2019-09-05T07:30:00Z,28.1324,-97.0345,0.0,3.6,71.0,4.2,'11111222,11111222,11111222' 
TCOON,ioos:station:TCOON:146:1,2019-09-05T08:30:00Z,28.1324,-97.0345,0.0,4.0,114.0,6.5,'11111222,11111222,11111222' 
TCOON,ioos:station:TCOON:146:1,2019-09-05T09:30:00Z,28.1324,-97.0345,0.0,5.3,84.0,6.5,'11111222,11111222,11111222' 
TCOON,ioos:station:TCOON:146:1,2019-09-05T10:30:00Z,28.1324,-97.0345,0.0,6.1,122.0,8.5,'11111222,11111222,11111222' 
TCOON,ioos:station:TCOON:146:1,2019-09-05T11:30:00Z,28.1324,-97.0345,0.0,3.9,131.0,5.5,'11111222,11111222,11111222' 
TCOON,ioos:station:TCOON:146:1,2019-09-05T12:30:00Z,28.1324,-97.0345,0.0,2.8,172.0,5.3,'11111222,11111222,11111222' 
TCOON,ioos:station:TCOON:146:1,2019-09-05T13:30:00Z,28.1324,-97.0345,0.0,0.9,250.0,1.7,'11111222,11111222,11111222' 
TCOON,ioos:station:TCOON:146:1,2019-09-05T14:30:00Z,28.1324,-97.0345,0.0,1.5,50.0,2.1,'11111222,11111222,11111222' 
TCOON,ioos:station:TCOON:146:1,2019-09-05T15:30:00Z,28.1324,-97.0345,0.0,2.9,54.0,3.9,'11111222,11111222,11111222' 
TCOON,ioos:station:TCOON:146:1,2019-09-05T16:30:00Z,28.1324,-97.0345,0.0,1.9,54.0,2.9,'11111222,11111222,11111222' 
TCOON,ioos:station:TCOON:146:1,2019-09-05T17:30:00Z,28.1324,-97.0345,0.0,2.9,78.0,3.7,'11111222,11111222,11111222' 
TCOON,ioos:station:TCOON:146:1,2019-09-05T18:30:00Z,28.1324,-97.0345,0.0,2.1,94.0,2.8,'11111222,11111222,11111222' 
TCOON,ioos:station:TCOON:146:1,2019-09-05T19:30:00Z,28.1324,-97.0345,0.0,1.9,97.0,2.4,'11111222,11111222,11111222' 
TCOON,ioos:station:TCOON:146:1,2019-09-05T20:30:00Z,28.1324,-97.0345,0.0,1.7,93.0,2.4,'11111222,11111222,11111222' 
TCOON,ioos:station:TCOON:146:1,2019-09-05T21:30:00Z,28.1324,-97.0345,0.0,2.1,109.0,2.4,'11111222,11111222,11111222' 
TCOON,ioos:station:TCOON:146:1,2019-09-05T22:30:00Z,28.1324,-97.0345,0.0,2.6,97.0,3.0,'11111222,11111222,11111222' 
TCOON,ioos:station:TCOON:146:1,2019-09-05T23:30:00Z,28.1324,-97.0345,0.0,3.0,123.0,3.6,'11111222,11111222,11111222' 
TCOON,ioos:station:TCOON:146:1,2019-09-06T00:30:00Z,28.1324,-97.0345,0.0,2.3,114.0,2.8,'11111222,11111222,11111222' 
TCOON,ioos:station:TCOON:146:1,2019-09-06T01:30:00Z,28.1324,-97.0345,0.0,3.1,112.0,3.6,'11111222,11111222,11111222' 
TCOON,ioos:station:TCOON:146:1,2019-09-06T02:30:00Z,28.1324,-97.0345,0.0,2.3,110.0,2.8,'11111222,11111222,11111222' 
TCOON,ioos:station:TCOON:146:1,2019-09-06T03:30:00Z,28.1324,-97.0345,0.0,2.3,108.0,2.8,'11111222,11111222,11111222' 
TCOON,ioos:station:TCOON:146:1,2019-09-06T04:30:00Z,28.1324,-97.0345,0.0,2.4,126.0,2.9,'11111222,11111222,11111222' 
TCOON,ioos:station:TCOON:146:1,2019-09-06T07:00:00Z,28.1324,-97.0345,0.0,2.1,142.0,2.6,'11111222,11111222,11111222' 
TCOON,ioos:station:TCOON:146:1,2019-09-06T08:00:00Z,28.1324,-97.0345,0.0,1.4,144.0,1.8,'11111222,11111222,11111222' 
TCOON,ioos:station:TCOON:146:1,2019-09-06T08:30:00Z,28.1324,-97.0345,0.0,1.0,154.0,1.7,'11111222,11111222,11111222' 
TCOON,ioos:station:TCOON:146:1,2019-09-06T09:30:00Z,28.1324,-97.0345,0.0,0.9,152.0,1.2,'11111222,11111222,11111222' 
TCOON,ioos:station:TCOON:146:1,2019-09-06T10:30:00Z,28.1324,-97.0345,0.0,0.8,187.0,1.0,'11111222,11111222,11111222' 
TCOON,ioos:station:TCOON:146:1,2019-09-06T11:30:00Z,28.1324,-97.0345,0.0,0.3,254.0,0.6,'11111222,11111222,11111222' 
TCOON,ioos:station:TCOON:146:1,2019-09-06T12:30:00Z,28.1324,-97.0345,0.0,1.9,356.0,2.3,'11111222,11111222,11111222' 
TCOON,ioos:station:TCOON:146:1,2019-09-06T13:30:00Z,28.1324,-97.0345,0.0,2.2,354.0,2.6,'11111222,11111222,11111222' 
TCOON,ioos:station:TCOON:146:1,2019-09-06T14:30:00Z,28.1324,-97.0345,0.0,2.1,352.0,2.4,'11111222,11111222,11111222' 
TCOON,ioos:station:TCOON:146:1,2019-09-06T15:30:00Z,28.1324,-97.0345,0.0,1.3,325.0,1.7,'11111222,11111222,11111222' 
TCOON,ioos:station:TCOON:146:1,2019-09-06T16:30:00Z,28.1324,-97.0345,0.0,0.1,292.0,0.5,'11111222,11111222,11111222' 
TCOON,ioos:station:TCOON:146:1,2019-09-06T17:30:00Z,28.1324,-97.0345,0.0,0.4,124.0,1.1,'11111222,11111222,11111222' 
TCOON,ioos:station:TCOON:146:1,2019-09-06T18:30:00Z,28.1324,-97.0345,0.0,2.8,120.0,4.0,'11111222,11111222,11111222' 
TCOON,ioos:station:TCOON:146:1,2019-09-06T19:30:00Z,28.1324,-97.0345,0.0,2.6,124.0,3.0,'11111222,11111222,11111222' 
TCOON,ioos:station:TCOON:146:1,2019-09-06T20:30:00Z,28.1324,-97.0345,0.0,2.6,113.0,3.2,'11111222,11111222,11111222' 
TCOON,ioos:station:TCOON:146:1,2019-09-06T21:30:00Z,28.1324,-97.0345,0.0,2.7,111.0,3.4,'11111222,11111222,11111222' 
TCOON,ioos:station:TCOON:146:1,2019-09-06T22:30:00Z,28.1324,-97.0345,0.0,3.2,109.0,3.9,'11111222,11111222,11111222' 
TCOON,ioos:station:TCOON:146:1,2019-09-06T23:30:00Z,28.1324,-97.0345,0.0,3.5,108.0,4.3,'11111222,11111222,11111222' 
TCOON,ioos:station:TCOON:146:1,2019-09-07T00:30:00Z,28.1324,-97.0345,0.0,3.6,112.0,4.3,'11111222,11111222,11111222' 
TCOON,ioos:station:TCOON:146:1,2019-09-07T01:30:00Z,28.1324,-97.0345,0.0,3.4,130.0,4.0,'11111222,11111222,11111222' 
TCOON,ioos:station:TCOON:146:1,2019-09-07T02:30:00Z,28.1324,-97.0345,0.0,2.7,111.0,3.2,'11111222,11111222,11111222' 
TCOON,ioos:station:TCOON:146:1,2019-09-07T03:30:00Z,28.1324,-97.0345,0.0,3.7,120.0,4.5,'11111222,11111222,11111222' 
TCOON,ioos:station:TCOON:146:1,2019-09-07T04:30:00Z,28.1324,-97.0345,0.0,3.8,126.0,4.4,'11111222,11111222,11111222' 
TCOON,ioos:station:TCOON:146:1,2019-09-07T05:30:00Z,28.1324,-97.0345,0.0,3.4,135.0,4.2,'11111222,11111222,11111222' 
TCOON,ioos:station:TCOON:146:1,2019-09-07T06:30:00Z,28.1324,-97.0345,0.0,3.3,145.0,4.3,'11111222,11111222,11111222' 
TCOON,ioos:station:TCOON:146:1,2019-09-07T07:30:00Z,28.1324,-97.0345,0.0,2.2,147.0,2.9,'11111222,11111222,11111222' 
TCOON,ioos:station:TCOON:146:1,2019-09-07T08:30:00Z,28.1324,-97.0345,0.0,1.9,168.0,2.5,'11111222,11111222,11111222' 
TCOON,ioos:station:TCOON:146:1,2019-09-07T09:30:00Z,28.1324,-97.0345,0.0,2.0,178.0,2.5,'11111222,11111222,11111222' 
TCOON,ioos:station:TCOON:146:1,2019-09-07T10:30:00Z,28.1324,-97.0345,0.0,1.6,189.0,2.1,'11111222,11111222,11111222' 
TCOON,ioos:station:TCOON:146:1,2019-09-07T11:30:00Z,28.1324,-97.0345,0.0,1.5,174.0,1.7,'11111222,11111222,11111222' 
TCOON,ioos:station:TCOON:146:1,2019-09-07T12:30:00Z,28.1324,-97.0345,0.0,1.1,176.0,1.4,'11111222,11111222,11111222' 
TCOON,ioos:station:TCOON:146:1,2019-09-07T13:30:00Z,28.1324,-97.0345,0.0,0.5,193.0,0.8,'11111222,11111222,11111222' 
TCOON,ioos:station:TCOON:146:1,2019-09-07T14:30:00Z,28.1324,-97.0345,0.0,1.5,333.0,1.8,'11111222,11111222,11111222' 
TCOON,ioos:station:TCOON:146:1,2019-09-07T15:30:00Z,28.1324,-97.0345,0.0,0.8,323.0,1.2,'11111222,11111222,11111222' 
TCOON,ioos:station:TCOON:146:1,2019-09-07T16:30:00Z,28.1324,-97.0345,0.0,0.3,279.0,0.9,'11111222,11111222,11111222' 
TCOON,ioos:station:TCOON:146:1,2019-09-07T17:30:00Z,28.1324,-97.0345,0.0,0.5,96.0,0.9,'11111222,11111222,11111222' 
TCOON,ioos:station:TCOON:146:1,2019-09-07T18:30:00Z,28.1324,-97.0345,0.0,2.0,115.0,2.7,'11111222,11111222,11111222' 
TCOON,ioos:station:TCOON:146:1,2019-09-07T19:30:00Z,28.1324,-97.0345,0.0,2.4,113.0,3.0,'11111222,11111222,11111222' 
TCOON,ioos:station:TCOON:146:1,2019-09-07T20:30:00Z,28.1324,-97.0345,0.0,2.6,124.0,3.1,'11111222,11111222,11111222' 
TCOON,ioos:station:TCOON:146:1,2019-09-07T21:30:00Z,28.1324,-97.0345,0.0,3.3,120.0,3.9,'11111222,11111222,11111222' 
TCOON,ioos:station:TCOON:146:1,2019-09-07T22:30:00Z,28.1324,-97.0345,0.0,3.6,127.0,4.4,'11111222,11111222,11111222' 
TCOON,ioos:station:TCOON:146:1,2019-09-07T23:30:00Z,28.1324,-97.0345,0.0,4.0,117.0,5.0,'11111222,11111222,11111222' 
TCOON,ioos:station:TCOON:146:1,2019-09-08T00:30:00Z,28.1324,-97.0345,0.0,4.0,118.0,4.8,'11111222,11111222,11111222' 
TCOON,ioos:station:TCOON:146:1,2019-09-08T01:30:00Z,28.1324,-97.0345,0.0,4.1,125.0,5.0,'11111222,11111222,11111222' 
TCOON,ioos:station:TCOON:146:1,2019-09-08T02:30:00Z,28.1324,-97.0345,0.0,4.0,126.0,4.8,'11111222,11111222,11111222' 
TCOON,ioos:station:TCOON:146:1,2019-09-08T03:30:00Z,28.1324,-97.0345,0.0,4.0,126.0,4.9,'11111222,11111222,11111222' 
TCOON,ioos:station:TCOON:146:1,2019-09-08T04:30:00Z,28.1324,-97.0345,0.0,4.5,133.0,5.4,'11111222,11111222,11111222' 
TCOON,ioos:station:TCOON:146:1,2019-09-08T05:30:00Z,28.1324,-97.0345,0.0,4.3,136.0,5.2,'11111222,11111222,11111222' 
TCOON,ioos:station:TCOON:146:1,2019-09-08T06:30:00Z,28.1324,-97.0345,0.0,4.0,139.0,4.7,'11111222,11111222,11111222' 
TCOON,ioos:station:TCOON:146:1,2019-09-08T07:30:00Z,28.1324,-97.0345,0.0,3.9,139.0,4.5,'11111222,11111222,11111222' 
TCOON,ioos:station:TCOON:146:1,2019-09-08T08:30:00Z,28.1324,-97.0345,0.0,3.7,140.0,4.5,'11111222,11111222,11111222' 
TCOON,ioos:station:TCOON:146:1,2019-09-08T09:30:00Z,28.1324,-97.0345,0.0,3.6,137.0,4.4,'11111222,11111222,11111222' 
TCOON,ioos:station:TCOON:146:1,2019-09-08T10:30:00Z,28.1324,-97.0345,0.0,2.5,161.0,3.6,'11111222,11111222,11111222' 
TCOON,ioos:station:TCOON:146:1,2019-09-08T11:30:00Z,28.1324,-97.0345,0.0,2.3,154.0,2.9,'11111222,11111222,11111222' 
TCOON,ioos:station:TCOON:146:1,2019-09-08T12:30:00Z,28.1324,-97.0345,0.0,1.9,151.0,2.7,'11111222,11111222,11111222' 
TCOON,ioos:station:TCOON:146:1,2019-09-08T13:30:00Z,28.1324,-97.0345,0.0,2.0,153.0,2.7,'11111222,11111222,11111222' 
TCOON,ioos:station:TCOON:146:1,2019-09-08T14:30:00Z,28.1324,-97.0345,0.0,2.9,142.0,3.6,'11111222,11111222,11111222' 
TCOON,ioos:station:TCOON:146:1,2019-09-08T15:30:00Z,28.1324,-97.0345,0.0,3.2,133.0,4.0,'11111222,11111222,11111222' 
TCOON,ioos:station:TCOON:146:1,2019-09-08T16:30:00Z,28.1324,-97.0345,0.0,3.7,130.0,4.4,'11111222,11111222,11111222' 
TCOON,ioos:station:TCOON:146:1,2019-09-08T17:30:00Z,28.1324,-97.0345,0.0,4.0,126.0,4.7,'11111222,11111222,11111222' 
TCOON,ioos:station:TCOON:146:1,2019-09-08T18:30:00Z,28.1324,-97.0345,0.0,4.2,127.0,4.9,'11111222,11111222,11111222' 
TCOON,ioos:station:TCOON:146:1,2019-09-08T19:30:00Z,28.1324,-97.0345,0.0,4.4,132.0,5.4,'11111222,11111222,11111222' 
TCOON,ioos:station:TCOON:146:1,2019-09-08T20:30:00Z,28.1324,-97.0345,0.0,4.7,129.0,5.9,'11111222,11111222,11111222' 
TCOON,ioos:station:TCOON:146:1,2019-09-08T21:30:00Z,28.1324,-97.0345,0.0,4.3,128.0,5.2,'11111222,11111222,11111222' 
TCOON,ioos:station:TCOON:146:1,2019-09-08T22:30:00Z,28.1324,-97.0345,0.0,4.0,119.0,4.7,'11111222,11111222,11111222' 
TCOON,ioos:station:TCOON:146:1,2019-09-08T23:30:00Z,28.1324,-97.0345,0.0,4.5,123.0,5.5,'11111222,11111222,11111222' 
TCOON,ioos:station:TCOON:146:1,2019-09-09T00:30:00Z,28.1324,-97.0345,0.0,4.5,125.0,5.3,'11111222,11111222,11111222' 
TCOON,ioos:station:TCOON:146:1,2019-09-09T01:30:00Z,28.1324,-97.0345,0.0,4.3,122.0,5.2,'11111222,11111222,11111222' 
TCOON,ioos:station:TCOON:146:1,2019-09-09T02:30:00Z,28.1324,-97.0345,0.0,4.3,119.0,5.3,'11111222,11111222,11111222' 
TCOON,ioos:station:TCOON:146:1,2019-09-09T03:30:00Z,28.1324,-97.0345,0.0,4.1,119.0,4.7,'11111222,11111222,11111222' 
TCOON,ioos:station:TCOON:146:1,2019-09-09T04:30:00Z,28.1324,-97.0345,0.0,4.5,125.0,5.6,'11111222,11111222,11111222' 
TCOON,ioos:station:TCOON:146:1,2019-09-09T05:30:00Z,28.1324,-97.0345,0.0,5.0,130.0,5.8,'11111222,11111222,11111222' 
TCOON,ioos:station:TCOON:146:1,2019-09-09T06:30:00Z,28.1324,-97.0345,0.0,4.6,133.0,5.5,'11111222,11111222,11111222' 
TCOON,ioos:station:TCOON:146:1,2019-09-09T07:30:00Z,28.1324,-97.0345,0.0,4.6,131.0,5.4,'11111222,11111222,11111222' 
TCOON,ioos:station:TCOON:146:1,2019-09-09T08:30:00Z,28.1324,-97.0345,0.0,4.7,130.0,5.7,'11111222,11111222,11111222' 
TCOON,ioos:station:TCOON:146:1,2019-09-09T09:30:00Z,28.1324,-97.0345,0.0,4.3,133.0,5.1,'11111222,11111222,11111222' 
TCOON,ioos:station:TCOON:146:1,2019-09-09T10:30:00Z,28.1324,-97.0345,0.0,4.4,137.0,5.1,'11111222,11111222,11111222' 
TCOON,ioos:station:TCOON:146:1,2019-09-09T11:30:00Z,28.1324,-97.0345,0.0,3.8,136.0,4.9,'11111222,11111222,11111222' 
TCOON,ioos:station:TCOON:146:1,2019-09-09T12:30:00Z,28.1324,-97.0345,0.0,3.5,136.0,4.2,'11111222,11111222,11111222' 
TCOON,ioos:station:TCOON:146:1,2019-09-09T13:30:00Z,28.1324,-97.0345,0.0,2.8,141.0,3.3,'11111222,11111222,11111222' 
TCOON,ioos:station:TCOON:146:1,2019-09-09T15:00:00Z,28.1324,-97.0345,0.0,3.4,122.0,4.2,'11111222,11111222,11111222' 